Year,Month,Day,Hour,Minute,Value (Times are PST for temperature in C)
2015,04,27,12,57,10.80
2015,04,27,12,58,10.80
2015,04,27,12,59,10.80
2015,04,27,13,00,10.80
2015,04,27,13,01,10.90
2015,04,27,13,02,10.80
2015,04,27,13,03,10.80
2015,04,27,13,04,10.80
2015,04,27,13,05,10.90
2015,04,27,13,06,10.90
2015,04,27,13,07,10.90
2015,04,27,13,08,10.90
2015,04,27,13,09,10.90
2015,04,27,13,10,10.90
2015,04,27,13,11,11.00
2015,04,27,13,12,11.00
2015,04,27,13,13,11.00
2015,04,27,13,14,11.00
2015,04,27,13,15,11.10
2015,04,27,13,16,11.10
2015,04,27,13,17,11.10
2015,04,27,13,18,11.10
2015,04,27,13,19,11.10
2015,04,27,13,20,11.10
2015,04,27,13,21,11.10
2015,04,27,13,22,11.00
2015,04,27,13,23,11.00
2015,04,27,13,24,10.90
2015,04,27,13,25,10.90
2015,04,27,13,26,10.80
2015,04,27,13,27,10.90
2015,04,27,13,28,10.90
2015,04,27,13,29,10.90
2015,04,27,13,30,10.90
2015,04,27,13,31,10.90
2015,04,27,13,32,11.00
2015,04,27,13,33,10.90
2015,04,27,13,34,11.00
2015,04,27,13,35,11.00
2015,04,27,13,36,11.00
2015,04,27,13,37,11.10
2015,04,27,13,38,11.10
2015,04,27,13,39,11.10
2015,04,27,13,40,11.10
2015,04,27,13,41,11.10
2015,04,27,13,42,11.10
2015,04,27,13,43,11.10
2015,04,27,13,44,11.00
2015,04,27,13,45,11.00
2015,04,27,13,46,11.00
2015,04,27,13,47,11.00
2015,04,27,13,48,11.10
2015,04,27,13,49,11.10
2015,04,27,13,50,11.10
2015,04,27,13,51,11.10
2015,04,27,13,52,11.10
2015,04,27,13,53,11.10
2015,04,27,13,54,11.10
2015,04,27,13,55,11.10
2015,04,27,13,56,11.10
2015,04,27,13,57,11.10
2015,04,27,13,58,11.10
2015,04,27,13,59,11.10
2015,04,27,14,00,11.10
2015,04,27,14,01,11.10
2015,04,27,14,02,11.10
2015,04,27,14,03,11.00
2015,04,27,14,04,11.10
2015,04,27,14,05,11.10
2015,04,27,14,06,11.10
2015,04,27,14,07,11.10
2015,04,27,14,08,11.10
2015,04,27,14,09,11.10
2015,04,27,14,10,11.10
2015,04,27,14,11,11.10
2015,04,27,14,12,11.10
2015,04,27,14,13,11.10
2015,04,27,14,14,11.10
2015,04,27,14,15,11.10
2015,04,27,14,16,11.10
2015,04,27,14,17,11.10
2015,04,27,14,18,11.10
2015,04,27,14,19,11.10
2015,04,27,14,20,11.10
2015,04,27,14,21,11.20
2015,04,27,14,22,11.20
2015,04,27,14,23,11.20
2015,04,27,14,24,11.20
2015,04,27,14,25,11.20
2015,04,27,14,26,11.20
2015,04,27,14,27,11.20
2015,04,27,14,28,11.20
2015,04,27,14,29,11.20
2015,04,27,14,30,11.20
2015,04,27,14,31,11.20
2015,04,27,14,32,11.20
2015,04,27,14,33,11.20
2015,04,27,14,34,11.20
2015,04,27,14,35,11.20
2015,04,27,14,36,11.20
2015,04,27,14,37,11.20
2015,04,27,14,38,11.20
2015,04,27,14,39,11.20
2015,04,27,14,40,11.20
2015,04,27,14,41,11.20
2015,04,27,14,42,11.20
2015,04,27,14,43,11.20
2015,04,27,14,44,11.20
2015,04,27,14,45,11.20
2015,04,27,14,46,11.20
2015,04,27,14,47,11.20
2015,04,27,14,48,11.20
2015,04,27,14,49,11.20
2015,04,27,14,50,11.20
2015,04,27,14,51,11.20
2015,04,27,14,52,11.20
2015,04,27,14,53,11.20
2015,04,27,14,54,11.20
2015,04,27,14,55,11.20
2015,04,27,14,56,11.20
2015,04,27,14,57,11.20
2015,04,27,14,58,11.20
2015,04,27,14,59,11.20
2015,04,27,15,00,11.30
2015,04,27,15,01,11.30
2015,04,27,15,02,11.30
2015,04,27,15,03,11.30
2015,04,27,15,04,11.30
2015,04,27,15,05,11.30
2015,04,27,15,06,11.40
2015,04,27,15,07,11.40
2015,04,27,15,08,11.40
2015,04,27,15,09,11.40
2015,04,27,15,10,11.40
2015,04,27,15,11,11.40
2015,04,27,15,12,11.40
2015,04,27,15,13,11.50
2015,04,27,15,14,11.40
2015,04,27,15,15,11.40
2015,04,27,15,16,11.40
2015,04,27,15,17,11.50
2015,04,27,15,18,11.50
2015,04,27,15,19,11.50
2015,04,27,15,20,11.50
2015,04,27,15,21,11.60
2015,04,27,15,22,11.60
2015,04,27,15,23,11.60
2015,04,27,15,24,11.60
2015,04,27,15,25,11.60
2015,04,27,15,26,11.60
2015,04,27,15,27,11.60
2015,04,27,15,28,11.60
2015,04,27,15,29,11.60
2015,04,27,15,30,11.50
2015,04,27,15,31,11.50
2015,04,27,15,32,11.50
2015,04,27,15,33,11.60
2015,04,27,15,34,11.60
2015,04,27,15,35,11.60
2015,04,27,15,36,11.60
2015,04,27,15,37,11.60
2015,04,27,15,38,11.60
2015,04,27,15,39,11.70
2015,04,27,15,40,11.70
2015,04,27,15,41,11.70
2015,04,27,15,42,11.70
2015,04,27,15,43,11.70
2015,04,27,15,44,11.70
2015,04,27,15,45,11.70
2015,04,27,15,46,11.70
2015,04,27,15,47,11.70
2015,04,27,15,48,11.80
2015,04,27,15,49,11.80
2015,04,27,15,50,11.80
2015,04,27,15,51,11.70
2015,04,27,15,52,11.80
2015,04,27,15,53,11.70
2015,04,27,15,54,11.70
2015,04,27,15,55,11.80
2015,04,27,15,56,11.80
2015,04,27,15,57,11.80
2015,04,27,15,58,11.80
2015,04,27,15,59,11.80
2015,04,27,16,00,11.80
2015,04,27,16,01,11.80
2015,04,27,16,02,11.80
2015,04,27,16,03,11.80
2015,04,27,16,04,11.80
2015,04,27,16,05,11.90
2015,04,27,16,06,11.90
2015,04,27,16,07,12.00
2015,04,27,16,08,12.00
2015,04,27,16,09,12.00
2015,04,27,16,10,12.00
2015,04,27,16,11,12.00
2015,04,27,16,12,11.90
2015,04,27,16,13,12.00
2015,04,27,16,14,12.00
2015,04,27,16,15,12.00
2015,04,27,16,16,12.00
2015,04,27,16,17,12.00
2015,04,27,16,18,12.00
2015,04,27,16,19,12.00
2015,04,27,16,20,12.00
2015,04,27,16,21,12.00
2015,04,27,16,22,12.00
2015,04,27,16,23,12.10
2015,04,27,16,24,12.10
2015,04,27,16,25,12.20
2015,04,27,16,26,12.20
2015,04,27,16,27,12.20
2015,04,27,16,28,12.30
2015,04,27,16,29,12.30
2015,04,27,16,30,12.30
2015,04,27,16,31,12.30
2015,04,27,16,32,12.30
2015,04,27,16,33,12.30
2015,04,27,16,34,12.30
2015,04,27,16,35,12.30
2015,04,27,16,36,12.30
2015,04,27,16,37,12.30
2015,04,27,16,38,12.30
2015,04,27,16,39,12.30
2015,04,27,16,40,12.30
2015,04,27,16,41,12.30
2015,04,27,16,42,12.30
2015,04,27,16,43,12.30
2015,04,27,16,44,12.40
2015,04,27,16,45,12.40
2015,04,27,16,46,12.40
2015,04,27,16,47,12.50
2015,04,27,16,48,12.50
2015,04,27,16,49,12.50
2015,04,27,16,50,12.50
2015,04,27,16,51,12.50
2015,04,27,16,52,12.50
2015,04,27,16,53,12.40
2015,04,27,16,54,12.50
2015,04,27,16,55,12.50
2015,04,27,16,56,12.50
2015,04,27,16,57,12.50
2015,04,27,16,58,12.60
2015,04,27,16,59,12.60
2015,04,27,17,00,12.60
2015,04,27,17,01,12.60
2015,04,27,17,02,12.60
2015,04,27,17,03,12.60
2015,04,27,17,04,12.60
2015,04,27,17,05,12.60
2015,04,27,17,06,12.60
2015,04,27,17,07,12.60
2015,04,27,17,08,12.60
2015,04,27,17,09,12.60
2015,04,27,17,10,12.60
2015,04,27,17,11,12.60
2015,04,27,17,12,12.60
2015,04,27,17,13,12.60
2015,04,27,17,14,12.70
2015,04,27,17,15,12.70
2015,04,27,17,16,12.70
2015,04,27,17,17,12.70
2015,04,27,17,18,12.80
2015,04,27,17,19,12.80
2015,04,27,17,20,12.80
2015,04,27,17,21,12.80
2015,04,27,17,22,12.90
2015,04,27,17,23,12.90
2015,04,27,17,24,12.90
2015,04,27,17,25,12.90
2015,04,27,17,26,12.90
2015,04,27,17,27,12.90
2015,04,27,17,28,12.90
2015,04,27,17,29,12.90
2015,04,27,17,30,12.90
2015,04,27,17,31,13.00
2015,04,27,17,32,13.00
2015,04,27,17,33,13.00
2015,04,27,17,34,13.10
2015,04,27,17,35,13.10
2015,04,27,17,36,13.20
2015,04,27,17,37,13.10
2015,04,27,17,38,13.20
2015,04,27,17,39,13.20
2015,04,27,17,40,13.20
2015,04,27,17,41,13.20
2015,04,27,17,42,13.20
2015,04,27,17,43,13.20
2015,04,27,17,44,13.30
2015,04,27,17,45,13.30
2015,04,27,17,46,13.40
2015,04,27,17,47,13.50
2015,04,27,17,48,13.60
2015,04,27,17,49,13.60
2015,04,27,17,50,13.60
2015,04,27,17,51,13.60
2015,04,27,17,52,13.60
2015,04,27,17,53,13.70
2015,04,27,17,54,13.70
2015,04,27,17,55,13.70
2015,04,27,17,56,13.70
2015,04,27,17,57,13.80
2015,04,27,17,58,13.80
2015,04,27,17,59,13.70
2015,04,27,18,00,13.70
2015,04,27,18,01,13.70
2015,04,27,18,02,13.70
2015,04,27,18,03,13.70
2015,04,27,18,04,13.70
2015,04,27,18,05,13.60
2015,04,27,18,06,13.60
2015,04,27,18,07,13.60
2015,04,27,18,08,13.60
2015,04,27,18,09,13.60
2015,04,27,18,10,13.60
2015,04,27,18,11,13.60
2015,04,27,18,12,13.60
2015,04,27,18,13,13.60
2015,04,27,18,14,13.60
2015,04,27,18,15,13.70
2015,04,27,18,16,13.70
2015,04,27,18,17,13.70
2015,04,27,18,18,13.70
2015,04,27,18,19,13.70
2015,04,27,18,20,13.70
2015,04,27,18,21,13.70
2015,04,27,18,22,13.70
2015,04,27,18,23,13.70
2015,04,27,18,24,13.70
2015,04,27,18,25,13.70
2015,04,27,18,26,13.70
2015,04,27,18,27,13.80
2015,04,27,18,28,13.70
2015,04,27,18,29,13.70
2015,04,27,18,30,13.70
2015,04,27,18,31,13.70
2015,04,27,18,32,13.70
2015,04,27,18,33,13.70
2015,04,27,18,34,13.70
2015,04,27,18,35,13.70
2015,04,27,18,36,13.70
2015,04,27,18,37,13.70
2015,04,27,18,38,13.70
2015,04,27,18,39,13.80
2015,04,27,18,40,13.80
2015,04,27,18,41,13.80
2015,04,27,18,42,13.80
2015,04,27,18,43,13.80
2015,04,27,18,44,13.80
2015,04,27,18,45,13.80
2015,04,27,18,46,13.80
2015,04,27,18,47,13.80
2015,04,27,18,48,13.70
2015,04,27,18,49,13.70
2015,04,27,18,50,13.70
2015,04,27,18,51,13.70
2015,04,27,18,52,13.70
2015,04,27,18,53,13.70
2015,04,27,18,54,13.70
2015,04,27,18,55,13.70
2015,04,27,18,56,13.70
2015,04,27,18,57,13.70
2015,04,27,18,58,13.70
2015,04,27,18,59,13.70
2015,04,27,19,00,13.70
2015,04,27,19,01,13.70
2015,04,27,19,02,13.70
2015,04,27,19,03,13.70
